Powrót do katalogu

STARLINK-3752

AktywnyŁącznośćVLEO
NORAD 52312·PAYLOAD·🇺🇸 United States

Wystrzelony Apr 21, 2022 z Cape Canaveral Space Force Station

Loading…

Następne Przeloty (najbliższe 24 godziny)

TLE

ŚwieżeSource: CelesTrak SupGP

Epoka: Sep 15, 2026, 02:42 UTC

1 52312C 22041BD  26258.11298611  .00029055  00000+0  85839-3 0  2588
2 52312  53.1589 306.5584 0001270  91.6783 129.6057 15.34377992    12

Śledź STARLINK-3752 w czasie rzeczywistym z AllMySat

Download on the App Store